Regional Weather Roundup
Issued by NWS Cleveland, OH

Home | Current Version | Previous Version | Graphics & Text | Print | Product List | Glossary On
Versions: 1 2 3 4 5 6 7 8 9 10 11 12 13 14 15 16 17 18 19 20 21 22 23 24 25 26 27 28 29 30 31 32 33 34 35 36 37 38 39 40 41 42 43 44 45 46 47 48 49 50
000
ASUS41 KCLE 300700
RWRCLE
OHIO REGIONAL WEATHER ROUNDUP
NATIONAL WEATHER SERVICE WILMINGTON, OH
300 AM EDT FRI SEP 30 2016

NOTE: "FAIR" INDICATES FEW OR NO CLOUDS BELOW 12,000 FEET WITH NO
SIGNIFICANT WEATHER AND/OR OBSTRUCTIONS TO VISIBILITY.

OHZ001>008-015>018-024>027-034-035-043-044-300800-
   NORTHWEST OHIO

CITY           SKY/WX    TMP DP  RH WIND       PRES   REMARKS
DEFIANCE       FAIR      62  58  86 N3        30.10F
FINDLAY        CLOUDY    62  58  86 NE8       30.09R
TOLEDO EXPRESS LGT RAIN  62  62 100 E12       30.09F
TOLEDO EXEC    CLOUDY    64  61  90 E9        30.10F
LIMA           CLOUDY    59  59 100 NE3       30.09R
$$

OHZ009>014-019>023-028>033-038-089-300800-
   NORTHEAST OHIO

CITY           SKY/WX    TMP DP  RH WIND       PRES   REMARKS
CLE-HOPKINS    LGT RAIN  61  56  83 E10       30.16S
CLE-LAKEFRONT  LGT RAIN  61  57  87 NE13      30.13S
CUY CO. ARPT   NOT AVBL
LORAIN-ELYRIA  NOT AVBL
ASHTABULA      HVY RAIN  58  58 100 E9        30.21S FOG
AKRON-CANTON   LGT RAIN  59  56  89 SE9       30.15R
WOOSTER        LGT RAIN  58  57  97 E14       30.12F
MANSFIELD      CLOUDY    59  58  96 E16G23    30.08R
YOUNGSTOWN     LGT RAIN  57  55  93 E16       30.16F
$$

OHZ042-051>053-060>062-070>072-077>081-300800-
  SOUTHWEST OHIO

CITY           SKY/WX    TMP DP  RH WIND       PRES   REMARKS
CINC-COVINGTON CLOUDY    58  57  97 S5        30.02F
CINC-LUNKEN    CLOUDY    56  56 100 CALM      30.04S
HAMILTON       MOCLDY    54  53  97 CALM      30.03S FOG
DAYTON         NOT AVBL
WRIGHT-PAT AFB MOCLDY    57  57 100 E5        30.02F
DAYTON GENERAL FAIR      56  54  93 NE5       30.01S
WILMINGTON     FAIR      55  55 100 NE7       30.02F
$$

OHZ036-037-039>041-045>050-054>059-063>069-073>076-082>088-300800-
  CENTRAL AND SOUTHEAST OHIO

CITY           SKY/WX    TMP DP  RH WIND       PRES   REMARKS
COLUMBUS       CLOUDY    61  61 100 E9        30.05S
OSU AIRPORT    LGT RAIN  61  60  97 CALM      30.06S
BOLTON FIELD   NOT AVBL
RICKENBACK AFB NOT AVBL
NEWARK         CLOUDY    61  59  93 NE5       30.06S
MARION         CLOUDY    61  58  90 E3        30.07R
LANCASTER      CLOUDY    61  60  97 CALM      30.05F
ZANESVILLE     MOCLDY    61  59  93 E8        30.07R
NEW PHILLY     RAIN      60  59  96 E6        30.12S
$$



USA.gov is the U.S. government's official web portal to all federal, state and local government web resources and services.